This is the latest recevied weather packets stored in our database for station/object ON3FV. If no packets are shown the sender has not sent any weather packets the latest 10 day(s).
| Time | Temp. | Humidity | Pressure | Rain* | Wind** | Luminosity | Snow |
|---|---|---|---|---|---|---|---|
| 1778031267 | 10° C | 85% | 1008.1 hPa | - | - | - | - |
| 1778030965 | 10° C | 85% | 1008.1 hPa | - | - | - | - |
| 1778025247 | 10.56° C | 85% | 1008.5 hPa | - | - | - | - |
| 1778024946 | 10.56° C | 85% | 1008.5 hPa | - | - | - | - |
| 1778024344 | 10.56° C | 85% | 1008.6 hPa | - | - | - | - |
| 1778024063 | 10.56° C | 85% | 1008.5 hPa | - | - | - | - |
| 1778023742 | 10.56° C | 85% | 1008.5 hPa | - | - | - | - |
| 1778022839 | 10.56° C | 85% | 1008.6 hPa | - | - | - | - |
| 1778022557 | 10.56° C | 85% | 1008.6 hPa | - | - | - | - |
| 1778021635 | 11.11° C | 84% | 1008.6 hPa | - | - | - | - |
| 1778021334 | 11.11° C | 84% | 1008.6 hPa | - | - | - | - |
| 1778021033 | 11.11° C | 84% | 1008.6 hPa | - | - | - | - |
| 1778020130 | 11.11° C | 84% | 1008.6 hPa | - | - | - | - |
| 1778019227 | 11.11° C | 84% | 1008.7 hPa | - | - | - | - |
| 1778018926 | 11.11° C | 84% | 1008.7 hPa | - | - | - | - |
| 1778012304 | 12.22° C | 82% | 1008.5 hPa | - | - | - | - |
| 1778012003 | 12.22° C | 82% | 1008.5 hPa | - | - | - | - |
| 1778010800 | 12.78° C | 81% | 1008.3 hPa | - | - | - | - |
| 1778010237 | 12.78° C | 81% | 1008.2 hPa | - | - | - | - |
| 1778007789 | 13.33° C | 80% | 1008 hPa | - | - | - | - |
| 1778006585 | 13.89° C | 80% | 1007.8 hPa | - | - | - | - |
| 1778005681 | 13.89° C | 80% | 1007.8 hPa | - | - | - | - |
| 1778004779 | 14.44° C | 79% | 1007.8 hPa | - | - | - | - |
| 1777999963 | 15° C | 80% | 1007.9 hPa | - | - | - | - |
| 1777999361 | 15° C | 82% | 1007.9 hPa | - | - | - | - |
* Rain since midnight (hover to see other rain measurements)
** Current wind speed in m/s (hover to see current wind gust speed)